Voltar ao catálogo

STARLINK-32932

AtivoComunicaçõesVLEO
NORAD 63083·PAYLOAD·🇺🇸 United States

Lançado Feb 23, 2025 de Vandenberg Space Force Base

Loading…

Próximas Passagens (próximas 24 horas)

TLE

AtualizadoSource: CelesTrak SupGP

Época: Sep 14, 2026, 21:49 UTC

1 63083C 25037G   26257.90951389  .00036662  00000+0  12753-2 0  2572
2 63083  70.0007 235.5743 0003025 250.5288 350.6976 15.29560980    17

Acompanhe STARLINK-32932 em tempo real com AllMySat

Download on the App Store